Showing default

COSMOS 2328, 23790

Orbit data source: Space-Track

COSMOS 2328, 23790 is a payload satellite owned by VKS (CIS) in LEO that was launched on Mon, 19 Feb 1996 UTC via a TSIKLON-3 launch vehicle from the Plesetsk Missile And Space Complex (PKMTR). Payloads include a variety of satellites, spacecraft, and rockets equipped with specific instruments for various scientific and technological missions. These include communications satellites like Starlink; space stations such as the ISS; scientific satellites like the Hubble; Earth observation satellites from companies like Planet Labs, Umbra, and HawkEye 360; GPS; miniature CubeSats for education and research; and military/defense satellites.

Loading next visibility...
COSMOS 2328 details
Identifier
23790, 1996-009D
Orbit
LEO
Last TLE update6 hours ago
Origin
Flag of CISVKS (CIS)
ManufacturerNPO PM
MissionNon-operational Defense Communications
Bus & MotorSTRELA-3, Unknown motor
Mass225 kg wet, 225 kg dry
Launch date (UTC)
1996-02-19 (29 years ago)
Launch vehicle
TSIKLON-3
Launch site
Plesetsk Missile And Space Complex (PKMTR)
Object type
Payload
Rocket body
Debris
Shape & HBRCyl + 1 Ant, 7 m
Radar Cross Section1.583 m², Large (>1 m²)

Expand to show TLE details & history

TLE from 6 hours ago
0 COSMOS 2328
1 23790U 96009D   24361.53749203  .00000024  00000-0  72263-4 0  9994
2 23790  82.5786 302.8401 0007165 188.2139 171.8836 12.62584432329621
Epoch: 2024-12-26T12:53Z
Definitive object data (Epoch: 2024-12-26T12:53:59.311Z)
Latitude-0.00002°
Longitude13.82751°
Altitude1,420.552 km
Speed7.148 km/s
True Right ascension20h 11m 21s
True Declination0° 00' 00"
Sunlit
Object was in daylight at TLE epoch
Visualization TLE readout
Latitude34.02287°
Longitude-171.36452°
Altitude1,412.483 km
Speed7.159 km/s
Apparent Right ascension07h 22m 24s
Apparent Declination1° 21' 54"
Sunlit
Object is in full shadow
Visualization observer readout
Local Sidereal Time18:45:08
Azimuth346.047° N
Elevation-47.848°
Doppler factor1
Orbital elements
Apogee altitude1,415.195 km
Perigee altitude1,404.036 km
Semi-major axis7,787.753 km
Eccentricity0.0007165
Inclination82.5786°
RAAN302.8401°
Arg. of periapsis188.2139°
True anomaly171.89518°
Mean anomaly171.8836°
Eccentric anomaly171.88939°
Mean motion3.15809 °/min
BSTAR0.000072263
Orbital period113.99 mins
Loading maneuver chart data...
Loading historical data...
Loading historical data...
Loading historical data...
Loading historical data...
Loading historical data...
Loading historical data...
Loading historical data...

COSMOS 2328 Visibility forecast

Observer location: undefined°, undefined

Span
Click to sort rows by Start time (UTC) header in descending order
Start Az.
Max El. time (UTC)
Max El. Az.
Max El.
End time (UTC)
End Az.
15 mins2024-12-26 20:35:29.223Z167.906° S2024-12-26 20:43:29.223Z78.324° E40.982°2024-12-26 20:50:29.223Z15.674° NNE
11 mins2024-12-26 22:33:29.223Z244.49° WSW2024-12-26 22:38:29.223Z290.252° WNW24.979°2024-12-26 22:44:29.223Z342.462° N
11 mins2024-12-27 06:38:29.223Z22.367° NNE2024-12-27 06:43:29.223Z64.564° ENE22.131°2024-12-27 06:49:29.223Z114.825° SE
15 mins2024-12-27 08:32:29.223Z346.317° N2024-12-27 08:39:29.223Z264.508° W43.152°2024-12-27 08:47:29.223Z186.034° SSW
|